Location: Brabourne
(51.1333°N, 1.0000°E)
Time: 21:36:45
(UTC+00:00)

BREEZE-M R/B - Pass Details

Date: 24 October 2021
Orbit: 592 x 26575 km, 48.9° (Epoch: 23 November)

Event Time Altitude Azimuth Distance (km) Brightness Sun altitude
Rises 17:55:16 0° 274° (W) 3,420 8.3 -11.7°
Reaches altitude 10° 17:57:50 10° 271° (W) 2,081 6.8 -12.1°
Maximum altitude 18:01:27 59° 191° (S) 697 2.9 -12.7°
Enters shadow 18:04:40 16° 113° (ESE) 1,908 4.5 -13.2°
